Location: Buckland
(65.9785°N, 161.1281°W)
Time: 18:10:47
(UTC+00:00)

SR - All Passes

Search period start: 04 December 2020 00:00
Search period end: 14 December 2020 00:00
Orbit: 579 x 877 km, 66.7° (Epoch: 03 December)

Date Brightness Start Highest point End Pass type
(mag) Time Alt. Az. Time Alt. Az. Time Alt. Az.
04 Dec - 03:57:49 10° SSE 04:01:08 20° ESE 04:04:40 10° ENE visible
04 Dec - 05:37:48 10° SW 05:42:17 53° SE 05:47:12 10° ENE visible
04 Dec - 07:19:28 10° WSW 07:24:13 88° NNW 07:29:27 10° ENE visible
04 Dec - 09:01:33 10° W 09:06:28 86° N 09:11:51 10° E visible
04 Dec - 10:43:34 10° WNW 10:48:30 59° SW 10:53:53 10° SE night (unlit)
04 Dec - 12:25:45 10° WNW 12:29:57 25° WSW 12:34:24 10° S night (unlit)
05 Dec - 03:09:43 10° SE 03:11:56 13° ESE 03:14:13 10° E visible
05 Dec - 04:48:28 10° SSW 04:52:45 39° SE 04:57:23 10° ENE visible
05 Dec - 06:29:44 10° WSW 06:34:26 81° SSE 06:39:37 10° ENE visible
05 Dec - 08:11:46 10° W 08:16:39 82° N 08:22:00 10° E visible
05 Dec - 09:53:50 10° WNW 09:58:49 73° SSW 10:04:16 10° ESE night (unlit)
05 Dec - 11:35:52 10° WNW 11:40:30 35° SW 11:45:27 10° SSE night (unlit)
05 Dec - 13:19:08 10° W 13:21:22 13° WSW 13:23:41 10° SW night (unlit)
06 Dec - 03:59:24 10° S 04:03:18 28° SE 04:07:30 10° ENE visible
06 Dec - 05:40:06 10° SW 05:44:44 67° SSE 05:49:49 10° ENE visible
06 Dec - 07:21:59 10° W 07:26:49 83° N 07:32:08 10° E visible
06 Dec - 09:04:06 10° WNW 09:09:04 86° SSW 09:14:31 10° ESE visible
06 Dec - 10:46:06 10° WNW 10:50:57 47° SW 10:56:13 10° SSE night (unlit)
06 Dec - 12:28:33 10° WNW 12:32:09 19° WSW 12:35:53 10° SSW night (unlit)
07 Dec - 03:10:42 10° SSE 03:13:59 19° ESE 03:17:27 10° ENE visible
07 Dec - 04:50:36 10° SW 04:55:06 51° SE 05:00:01 10° ENE visible
07 Dec - 06:32:13 10° WSW 06:37:01 89° NNW 06:42:17 10° ENE visible
07 Dec - 08:14:20 10° W 08:19:16 86° N 08:24:41 10° E visible
07 Dec - 09:56:21 10° WNW 10:01:19 61° SW 10:06:45 10° SE night (unlit)
07 Dec - 11:38:31 10° WNW 11:42:47 26° SW 11:47:20 10° S night (unlit)
08 Dec - 02:22:41 10° SE 02:24:47 13° ESE 02:26:56 10° E visible
08 Dec - 04:01:18 10° SSW 04:05:33 38° SE 04:10:12 10° ENE visible
08 Dec - 05:42:30 10° WSW 05:47:15 80° SSE 05:52:27 10° ENE visible
08 Dec - 07:24:33 10° W 07:29:26 82° N 07:34:49 10° E visible
08 Dec - 09:06:36 10° WNW 09:11:37 75° SSW 09:17:06 10° ESE visible
08 Dec - 10:48:38 10° WNW 10:53:20 36° SW 10:58:21 10° SSE night (unlit)
08 Dec - 12:31:45 10° W 12:34:14 13° WSW 12:36:47 10° SW night (unlit)
09 Dec - 03:12:15 10° S 03:16:08 27° SE 03:20:18 10° ENE visible
09 Dec - 04:52:53 10° SW 04:57:32 65° SSE 05:02:38 10° ENE visible
09 Dec - 06:34:46 10° W 06:39:36 84° N 06:44:57 10° E visible
09 Dec - 08:16:51 10° WNW 08:21:52 87° SSW 08:27:20 10° ESE visible
09 Dec - 09:58:52 10° WNW 10:03:47 48° SW 10:09:05 10° SSE night (unlit)
09 Dec - 11:41:17 10° WNW 11:44:59 20° WSW 11:48:52 10° SSW night (unlit)
10 Dec - 02:23:35 10° SSE 02:26:50 19° ESE 02:30:14 10° ENE visible
10 Dec - 04:03:23 10° SW 04:07:54 50° SE 04:12:50 10° ENE visible
10 Dec - 05:45:00 10° WSW 05:49:48 90° NNE 05:55:06 10° ENE visible
10 Dec - 07:27:05 10° W 07:32:03 85° N 07:37:30 10° E visible
10 Dec - 09:09:07 10° WNW 09:14:09 62° SSW 09:19:36 10° SE visible
10 Dec - 10:51:16 10° WNW 10:55:37 27° SW 11:00:15 10° S night (unlit)
11 Dec - 01:35:40 10° SE 01:37:38 13° ESE 01:39:40 10° E daylight
11 Dec - 03:14:06 10° SSW 03:18:23 37° SE 03:23:01 10° ENE visible
11 Dec - 04:55:17 10° WSW 05:00:02 79° SSE 05:05:16 10° ENE visible
11 Dec - 06:37:18 10° W 06:42:14 82° N 06:47:38 10° E visible
11 Dec - 08:19:23 10° WNW 08:24:26 76° SSW 08:29:56 10° ESE visible
11 Dec - 10:01:25 10° WNW 10:06:09 37° SW 10:11:15 10° SSE night (unlit)
11 Dec - 11:44:24 10° W 11:47:05 14° WSW 11:49:51 10° SW night (unlit)
12 Dec - 02:25:06 10° S 02:28:58 26° ESE 02:33:06 10° ENE visible
12 Dec - 04:05:40 10° SW 04:10:20 64° SSE 04:15:28 10° ENE visible
12 Dec - 05:47:31 10° W 05:52:24 84° N 05:57:45 10° E visible
12 Dec - 07:29:37 10° WNW 07:34:39 88° SSW 07:40:09 10° ESE visible
12 Dec - 09:11:38 10° WNW 09:16:35 50° SW 09:21:57 10° SSE visible
12 Dec - 10:54:01 10° WNW 10:57:50 20° WSW 11:01:50 10° SSW night (unlit)
13 Dec - 01:36:28 10° SSE 01:39:39 18° ESE 01:43:00 10° ENE daylight
13 Dec - 03:16:11 10° SSW 03:20:43 49° SE 03:25:39 10° ENE visible
13 Dec - 04:57:45 10° WSW 05:02:35 89° SSE 05:07:54 10° ENE visible
13 Dec - 06:39:51 10° W 06:44:51 85° N 06:50:19 10° E visible
13 Dec - 08:21:53 10° WNW 08:26:56 64° SSW 08:32:26 10° SE visible
13 Dec - 10:04:00 10° WNW 10:08:27 28° SW 10:13:10 10° S visible
